Starlink 32369

operational
NORAD ID: 60917 Int'l Des: 2024-154 Owner: SPXS Country: US Constellation: starlink
LEOCIRCULAR

Über Starlink 32369

Beschreibung wird geladen...

Live-Position

3D-Globus wird geladen...

Nächste Überflüge

Höhenverlauf

Altitude vs Time

uPlot chart will show altitude changes over time

Zweizeiliger Elementsatz

1 60917U 24154Q 25258.61877645 .00002766 00000-0 10548-3 0 9997
2 60917 53.1610 16.8325 0001093 80.8105 279.3019 15.30195588 59539
Epoch: 15. Sept. 2025 • Age: 16 hours

Aktueller Status

Höhe 477.3 km
Geschwindigkeit 7.63 km/s
Subsatellitenpunkt -6.81°S, 84.1°W
Startdatum 31. Aug. 2024
Alter 1 years
Typ internet

Technische Details

Klassifizierung Payload
Masse 730.00 kg
Trockenmasse 700.00 kg
Gesamtmasse 730.00 kg
Länge 0.30 m
Durchmesser 4.10 m
Spannweite 29.00 m
Form Box + pan
Hersteller SPXS
Bus-Typ Starlink V2M
Phasenstatus In Orbit
Besitzer/Staat SPXS/US

Große Konstellationen

Loading constellations...